Regional Weather Roundup
Issued by NWS

Home | Current Version | Previous Version | Text Only | Print | Product List | Glossary Off
Versions: 1 2 3 4 5 6 7 8 9 10 11 12 13 14 15 16 17 18 19 20 21 22 23 24 25 26 27 28 29 30 31 32 33 34 35 36 37 38 39 40 41 42 43 44 45 46 47 48 49 50

810
ASUS45 KPSR 261510
RWRAZ

ARIZONA HOURLY REGIONAL WEATHER ROUNDUP
NATIONAL WEATHER SERVICE PHOENIX AZ
800 AM MST TUE JUL 26 2016

NOTE: FAIR INDICATES FEW OR NO CLOUDS BELOW 12,000 FEET WITH NO
SIGNIFICANT WEATHER AND/OR OBSTRUCTIONS TO VISIBILITY.

AZZ001>003-036-261600-
NORTHWEST ARIZONA

CITY           SKY/WX    TMP DP  RH WIND       PRES   REMARKS
BULLHEAD CITY  SUNNY     95  57  28 CALM      29.85R
KINGMAN        SUNNY     87  49  26 CALM      30.07R
$$

AZZ004>008-015-016-018-261600-
NORTH CENTRAL ARIZONA

CITY           SKY/WX    TMP DP  RH WIND       PRES   REMARKS
GRAND CANYON   CLOUDY    75  47  36 NE3       30.34R
WILLIAMS       CLOUDY    68  54  60 SE5       30.41R
PRESCOTT       MOSUNNY   77  57  50 CALM      30.20R
FLAGSTAFF      CLOUDY    62  59  90 CALM      30.38R
PAYSON         MOSUNNY   77  54  44 CALM      30.24S
PAGE           MOSUNNY   85  45  24 CALM      30.15R
$$

AZZ009>014-017-261600-
NORTHEAST ARIZONA

CITY           SKY/WX    TMP DP  RH WIND       PRES   REMARKS
WINSLOW        PTSUNNY   78  53  41 CALM      30.23R
SAINT JOHNS    MOSUNNY   74  54  49 SE5       30.27R
WINDOW ROCK    CLOUDY    69  54  58 CALM      30.36R
SHOW LOW       SUNNY     72  50  46 CALM      30.33R
$$

AZZ023-261600-
GREATER PHOENIX AREA

CITY           SKY/WX    TMP DP  RH WIND       PRES   REMARKS
PHOENIX        MOSUNNY   95  57  27 NW5       29.87R
BUCKEYE        SUNNY     91  59  33 CALM      29.90R
GLENDALE       MOSUNNY   93  57  29 CALM      29.90R
LUKE AFB       SUNNY     94  59  30 NE3       29.87R
DEER VALLEY    MOSUNNY   92  53  26 CALM      29.90R
SCOTTSDALE     MOSUNNY   93  57  29 CALM      29.92R
MESA-FALCON    MOSUNNY  N/A N/A N/A NE9       29.88R
MESA-GATEWAY   MOSUNNY   90  61  37 SE6       29.91R
CHANDLER       MOSUNNY   93  57  29 NW6       29.90R
$$

AZZ027-028-261600-
SOUTHWEST MARICOPA COUNTY AND PINAL COUNTY

CITY           SKY/WX    TMP DP  RH WIND       PRES   REMARKS
CASA GRANDE    SUNNY     91  59  33 W8        29.93S
GILA BEND      SUNNY     97  61  30 S5        29.87R
$$

AZZ503-504-507>509-261600-
SOUTHEAST ARIZONA

CITY           SKY/WX    TMP DP  RH WIND       PRES   REMARKS
TUCSON         SUNNY     88  60  38 CALM      30.04R
DAVIS-MONTHAN  SUNNY     87  59  38 SW9       30.03R
RYAN FIELD     SUNNY    N/A N/A N/A S14       30.02R
NOGALES        PTSUNNY   79  66  64 S8        30.14R
SIERRA VISTA   MOSUNNY   78  62  58 VRB3      30.19S
DOUGLAS        PTSUNNY   74  63  68 SE9       30.16S
SAFFORD        MOSUNNY   85  59  41 SE9       30.07R
$$

AZZ020-021-025-026-031-261600-
SOUTHWEST ARIZONA

CITY           SKY/WX    TMP DP  RH WIND       PRES   REMARKS
YUMA           MOSUNNY   87  72  60 S9        29.83R
$$

CAZ031-033-041-043-047-048-061-261600-
SOUTHERN CALIFORNIA

CITY           SKY/WX    TMP DP  RH WIND       PRES   REMARKS
DOWNTOWN L.A.  SUNNY     73  65  75 CALM      29.89S
L.A. AIRPORT   MOSUNNY   68  64  88 W8        29.91R FOG
SAN DIEGO      CLOUDY    70  67  90 N5        29.92R
BURBANK        SUNNY     77  54  44 CALM      29.91R
ONTARIO        MOSUNNY   78  60  53 CALM      29.91F
RIVERSIDE      SUNNY     78  60  53 CALM      29.91F
PALM SPRINGS   SUNNY     92  58  31 W3        29.83R
EL CENTRO NAS  MOSUNNY   92  64  39 S9        29.82R
IMPERIAL       SUNNY     93  68  43 S12       29.80R
BLYTHE         MOSUNNY   94  65  38 S14       29.83R
NEEDLES        MOSUNNY   97  59  28 N3        29.86R
$$

NVZ020-UTZ003-261600-
SOUTHERN NEVADA-UTAH

CITY           SKY/WX    TMP DP  RH WIND       PRES   REMARKS
LAS VEGAS      MOSUNNY   91  53  27 W6        29.91R
SALT LAKE CITY MOSUNNY   86  43  22 S7        30.07R
$$

NMZ009-TXZ055-261600-
NEW MEXICO-WEST TEXAS

CITY           SKY/WX    TMP DP  RH WIND       PRES   REMARKS
ALBUQUERQUE    CLOUDY    74  58  57 NW8       30.28S
EL PASO        MOSUNNY   78  59  51 N13       30.15S
$$


........................KEY........................
SKY/WX - SKY CONDITION/WEATHER
TMP    - TEMPERATURE IN FAHRENHEIT
DP     - DEW POINT IN FAHRENHEIT
RH     - RELATIVE HUMIDITY IN PERCENT
WIND   - DIRECTION AND SPEED IN MILES PER HOUR (MPH)
VRB    - VARIABLE WIND DIRECTION
PRES   - MEAN SEA LEVEL PRESSURE IN INCHES OF MERCURY
         F - FALLING PRESSURE   R - RISING PRESSURE
         S - STEADY PRESSURE
VSB    - VISIBILITY IN MILES
HX     - HEAT INDEX IN FAHRENHEIT
WCI    - WIND CHILL INDEX IN FAHRENHEIT
TC     - TEMPERATURE IN CELSIUS WHICH IS ALSO KNOWN AS
         TEMPERATURE IN CENTIGRADE
AFB    - AIR FORCE BASE
         LUKE AFB IS LUKE AIR FORCE BASE
         DAVIS-MONTHAN IS DAVIS-MONTHAN AIR FORCE BASE
NAS    - NAVAL AIR STATION
         EL CENTRO NAS IS EL CENTRO NAVAL AIR STATION
N/A    - NOT AVAILABLE





USA.gov is the U.S. government's official web portal to all federal, state and local government web resources and services.